TimeEST,TemperatureF,Dew PointF,Humidity,Sea Level PressureIn,VisibilityMPH,Wind Direction,Wind SpeedMPH,Gust SpeedMPH,PrecipitationIn,Events,Conditions,WindDirDegrees,DateUTC
12:56 AM,32.0,26.1,79,30.00,10.0,West,8.1,-,N/A,,Clear,270,2013-02-15 05:56:00
1:56 AM,32.0,26.1,79,29.99,10.0,WSW,5.8,-,N/A,,Clear,240,2013-02-15 06:56:00
2:56 AM,26.1,23.0,88,30.00,9.0,WSW,6.9,-,N/A,,Clear,250,2013-02-15 07:56:00
3:56 AM,28.0,25.0,88,30.00,8.0,West,6.9,-,N/A,,Mostly Cloudy,260,2013-02-15 08:56:00
4:56 AM,26.1,24.1,92,30.01,7.0,SW,5.8,-,N/A,,Mostly Cloudy,230,2013-02-15 09:56:00
5:56 AM,30.0,26.1,85,30.03,7.0,SW,5.8,-,N/A,,Mostly Cloudy,230,2013-02-15 10:56:00
6:56 AM,30.2,26.6,86,30.02,6.0,SW,6.9,-,N/A,,Overcast,230,2013-02-15 11:56:00
7:56 AM,30.9,28.0,89,30.06,5.0,SW,5.8,-,N/A,,Overcast,230,2013-02-15 12:56:00
8:56 AM,32.0,28.0,85,30.08,5.0,SW,5.8,-,N/A,,Overcast,230,2013-02-15 13:56:00
9:56 AM,34.0,30.0,85,30.08,5.0,SW,6.9,-,N/A,,Overcast,220,2013-02-15 14:56:00
10:13 AM,33.8,30.2,87,30.06,5.0,West,6.9,-,N/A,,Overcast,260,2013-02-15 15:13:00
10:45 AM,33.8,28.4,81,30.06,2.0,NW,5.8,-,0.00,Snow,Light Snow,320,2013-02-15 15:45:00
10:56 AM,33.1,28.9,85,30.09,2.0,WNW,6.9,-,0.00,Snow,Light Snow,290,2013-02-15 15:56:00
11:01 AM,33.8,28.4,81,30.06,1.8,NW,5.8,-,0.00,Snow,Light Snow,310,2013-02-15 16:01:00
11:40 AM,32.0,28.4,87,30.06,1.0,NNW,8.1,-,0.01,Snow,Light Snow,340,2013-02-15 16:40:00
11:56 AM,33.1,28.9,85,30.09,4.0,NW,4.6,-,0.01,Snow,Light Snow,320,2013-02-15 16:56:00
12:45 PM,33.8,30.2,87,30.05,2.5,NW,6.9,-,0.00,Snow,Light Snow,320,2013-02-15 17:45:00
12:50 PM,33.8,30.2,87,30.05,3.0,NNW,6.9,-,0.00,Snow,Light Snow,340,2013-02-15 17:50:00
12:56 PM,34.0,30.0,85,30.08,3.0,NW,6.9,-,0.00,Snow,Light Snow,320,2013-02-15 17:56:00
1:12 PM,35.6,30.2,81,30.05,5.0,NNW,5.8,-,0.00,,Haze,330,2013-02-15 18:12:00
1:27 PM,35.6,28.4,75,30.05,8.0,NW,6.9,-,0.00,,Overcast,320,2013-02-15 18:27:00
1:56 PM,35.1,30.0,82,30.07,8.0,WNW,6.9,-,0.00,,Overcast,300,2013-02-15 18:56:00
2:25 PM,35.6,28.4,75,30.04,9.0,WNW,8.1,-,0.00,Snow,Light Snow,300,2013-02-15 19:25:00
2:56 PM,36.0,27.0,70,30.07,7.0,WNW,19.6,26.5,0.00,Snow,Light Snow,300,2013-02-15 19:56:00
2:59 PM,33.8,28.4,81,30.04,2.0,WNW,20.7,26.5,0.00,Snow,Light Snow,300,2013-02-15 19:59:00
3:02 PM,33.8,28.4,81,30.04,1.2,NW,16.1,26.5,0.00,Snow,Light Snow,310,2013-02-15 20:02:00
3:18 PM,33.8,28.4,81,30.04,5.0,NW,11.5,-,0.00,Snow,Light Snow,320,2013-02-15 20:18:00
3:35 PM,33.8,30.2,87,30.05,2.5,WNW,5.8,-,0.00,Snow,Light Snow,300,2013-02-15 20:35:00
3:50 PM,33.8,30.2,87,30.05,3.0,WNW,8.1,-,0.00,Snow,Light Snow,300,2013-02-15 20:50:00
3:53 PM,33.8,28.4,81,30.06,2.5,NW,11.5,-,0.00,Snow,Light Snow,320,2013-02-15 20:53:00
3:56 PM,34.0,28.0,79,30.08,2.0,NW,11.5,-,0.00,Snow,Light Snow,310,2013-02-15 20:56:00
4:06 PM,33.8,28.4,81,30.06,0.8,WNW,17.3,-,0.00,Snow,Light Snow,300,2013-02-15 21:06:00
4:22 PM,32.0,28.4,87,30.06,1.5,WNW,8.1,-,0.00,Snow,Light Snow,300,2013-02-15 21:22:00
4:38 PM,33.8,30.2,87,30.06,1.0,North,12.7,19.6,0.01,Snow,Light Snow,350,2013-02-15 21:38:00
4:48 PM,30.2,28.4,93,30.07,0.8,NNW,15.0,-,0.01,Snow,Light Snow,330,2013-02-15 21:48:00
4:51 PM,30.2,28.4,93,30.07,0.8,NNW,17.3,-,0.01,Snow,Light Snow,340,2013-02-15 21:51:00
4:56 PM,30.9,28.0,89,30.11,0.8,North,15.0,-,0.01,Snow,Light Snow,350,2013-02-15 21:56:00
5:03 PM,30.2,26.6,86,30.08,1.5,North,13.8,-,0.00,Snow,Light Snow,350,2013-02-15 22:03:00
5:18 PM,30.2,26.6,86,30.08,2.5,North,11.5,-,0.00,Snow,Light Snow,350,2013-02-15 22:18:00
5:31 PM,30.2,26.6,86,30.09,4.0,North,11.5,-,0.00,Snow,Light Snow,360,2013-02-15 22:31:00
5:44 PM,30.2,24.8,80,30.09,9.0,North,16.1,21.9,0.00,,Overcast,350,2013-02-15 22:44:00
5:56 PM,30.0,25.0,82,30.13,8.0,North,13.8,-,0.00,,Overcast,350,2013-02-15 22:56:00
6:10 PM,30.2,24.8,80,30.10,9.0,NNW,13.8,-,0.00,,Overcast,340,2013-02-15 23:10:00
6:56 PM,28.9,24.1,82,30.15,10.0,NW,6.9,-,0.00,,Overcast,320,2013-02-15 23:56:00
7:32 PM,28.4,24.8,86,30.12,10.0,NW,6.9,-,N/A,,Overcast,310,2013-02-16 00:32:00
7:45 PM,28.4,24.8,86,30.12,10.0,WNW,9.2,-,N/A,,Overcast,300,2013-02-16 00:45:00
7:56 PM,28.0,23.0,81,30.15,10.0,NW,8.1,-,N/A,,Mostly Cloudy,320,2013-02-16 00:56:00
8:56 PM,27.0,23.0,85,30.16,10.0,NW,8.1,-,N/A,,Scattered Clouds,310,2013-02-16 01:56:00
9:56 PM,25.0,18.0,75,30.17,10.0,NW,5.8,-,N/A,,Clear,310,2013-02-16 02:56:00
10:56 PM,24.1,18.0,77,30.17,10.0,NW,6.9,-,N/A,,Clear,310,2013-02-16 03:56:00
11:56 PM,23.0,16.0,74,30.17,10.0,NW,3.5,-,N/A,,Clear,320,2013-02-16 04:56:00